Radiation Dose at Monitoring Post of Fukushima Daini Nuclear Power Station
Date,Time,MP-1(microSv/h),MP-2(microSv/h),MP-3(microSv/h),MP-4(microSv/h),MP-5(microSv/h),MP-6(microSv/h),MP-7(microSv/h),Wind Direction,Wind Velocity(m/s),Rain
2017/01/26,00:00,0.380,0.229,0.395,0.364,0.331,0.190,0.162,north-northwest,1.9,No
2017/01/26,00:10,0.380,0.229,0.392,0.365,0.332,0.189,0.162,northwest,2.0,No
2017/01/26,00:20,0.380,0.228,0.392,0.364,0.331,0.189,0.162,northwest,2.4,No
2017/01/26,00:30,0.381,0.228,0.393,0.365,0.330,0.189,0.162,west-northwest,2.6,No
2017/01/26,00:40,0.382,0.227,0.393,0.363,0.332,0.188,0.162,west-northwest,2.0,No
2017/01/26,00:50,0.381,0.228,0.394,0.363,0.333,0.190,0.162,west-northwest,2.2,No
2017/01/26,01:00,0.380,0.228,0.393,0.365,0.330,0.189,0.161,west,1.5,No
2017/01/26,01:10,0.381,0.227,0.392,0.366,0.333,0.189,0.162,southwest,1.2,No
2017/01/26,01:20,0.380,0.229,0.393,0.363,0.331,0.190,0.161,west,1.1,No
2017/01/26,01:30,0.381,0.228,0.393,0.363,0.333,0.189,0.162,west-northwest,0.6,No
2017/01/26,01:40,0.380,0.227,0.393,0.365,0.332,0.189,0.162,west,0.8,No
2017/01/26,01:50,0.381,0.226,0.393,0.366,0.332,0.189,0.162,west-southwest,1.0,No
2017/01/26,02:00,0.381,0.227,0.394,0.364,0.331,0.190,0.163,west-northwest,1.1,No
2017/01/26,02:10,0.380,0.228,0.393,0.365,0.331,0.190,0.162,-,CALM,No
2017/01/26,02:20,0.381,0.228,0.394,0.365,0.331,0.189,0.162,-,CALM,No
2017/01/26,02:30,0.381,0.228,0.393,0.365,0.332,0.189,0.162,-,CALM,No
2017/01/26,02:40,0.381,0.227,0.393,0.362,0.331,0.189,0.162,south-southwest,2.0,No
2017/01/26,02:50,0.382,0.227,0.394,0.365,0.332,0.189,0.162,south-southwest,2.4,No
2017/01/26,03:00,0.381,0.228,0.393,0.366,0.332,0.189,0.162,west-southwest,2.5,No
2017/01/26,03:10,0.380,0.228,0.392,0.365,0.331,0.188,0.162,west-northwest,1.7,No
2017/01/26,03:20,0.380,0.227,0.393,0.363,0.332,0.189,0.162,northwest,0.8,No
2017/01/26,03:30,0.380,0.228,0.394,0.364,0.331,0.189,0.161,-,CALM,No
2017/01/26,03:40,0.381,0.228,0.394,0.365,0.330,0.188,0.161,north-northwest,1.1,No
2017/01/26,03:50,0.379,0.228,0.394,0.365,0.331,0.189,0.161,west-northwest,1.9,No
2017/01/26,04:00,0.382,0.227,0.393,0.364,0.330,0.189,0.161,northwest,2.2,No
2017/01/26,04:10,0.381,0.228,0.394,0.364,0.331,0.188,0.161,west-northwest,3.1,No
2017/01/26,04:20,0.381,0.228,0.393,0.363,0.329,0.190,0.162,west-northwest,4.3,No
2017/01/26,04:30,0.379,0.228,0.392,0.363,0.331,0.190,0.162,west-northwest,4.2,No
2017/01/26,04:40,0.381,0.228,0.393,0.365,0.331,0.189,0.161,west-northwest,3.9,No
2017/01/26,04:50,0.381,0.227,0.395,0.364,0.330,0.188,0.162,west-northwest,2.5,No
2017/01/26,05:00,0.381,0.227,0.394,0.366,0.330,0.189,0.161,west-northwest,2.2,No
2017/01/26,05:10,0.380,0.227,0.393,0.364,0.331,0.188,0.161,west-northwest,1.8,No
2017/01/26,05:20,0.379,0.229,0.393,0.364,0.329,0.188,0.162,west-southwest,1.7,No
2017/01/26,05:30,0.381,0.227,0.393,0.363,0.332,0.189,0.163,southwest,1.7,No
2017/01/26,05:40,0.380,0.228,0.394,0.364,0.330,0.189,0.162,southwest,1.0,No
2017/01/26,05:50,0.380,0.226,0.393,0.364,0.330,0.188,0.162,south,1.4,No
2017/01/26,06:00,0.382,0.228,0.394,0.364,0.331,0.188,0.162,south,1.3,No
2017/01/26,06:10,0.380,0.226,0.393,0.366,0.331,0.189,0.162,south-southeast,1.1,No
2017/01/26,06:20,0.380,0.227,0.394,0.364,0.331,0.189,0.163,south-southeast,1.4,No
2017/01/26,06:30,0.380,0.227,0.393,0.363,0.331,0.190,0.163,south,1.2,No
2017/01/26,06:40,0.381,0.228,0.393,0.365,0.331,0.190,0.161,west-southwest,0.8,No
2017/01/26,06:50,0.380,0.227,0.393,0.364,0.333,0.188,0.162,west-southwest,0.8,No
2017/01/26,07:00,0.381,0.227,0.393,0.366,0.331,0.188,0.161,west-southwest,1.6,No
2017/01/26,07:10,0.382,0.228,0.393,0.364,0.330,0.188,0.162,southwest,1.4,No
2017/01/26,07:20,0.380,0.227,0.392,0.364,0.329,0.188,0.163,south-southwest,0.7,No
2017/01/26,07:30,0.380,0.227,0.393,0.363,0.331,0.189,0.163,south-southwest,0.8,No
2017/01/26,07:40,0.380,0.227,0.393,0.364,0.331,0.189,0.163,southwest,1.0,No
2017/01/26,07:50,0.381,0.228,0.394,0.363,0.331,0.189,0.162,west,1.3,No
2017/01/26,08:00,0.380,0.227,0.392,0.363,0.331,0.188,0.162,west-northwest,2.2,No
2017/01/26,08:10,0.380,0.227,0.393,0.363,0.329,0.188,0.162,west-northwest,2.1,No
2017/01/26,08:20,0.380,0.227,0.395,0.364,0.331,0.188,0.162,west-northwest,1.5,No
2017/01/26,08:30,0.380,0.226,0.391,0.363,0.331,0.189,0.162,west-northwest,1.9,No
2017/01/26,08:40,0.380,0.227,0.393,0.362,0.331,0.188,0.162,northwest,2.0,No
2017/01/26,08:50,0.379,0.226,0.393,0.364,0.332,0.188,0.162,north-northwest,1.7,No
2017/01/26,09:00,0.381,0.226,0.391,0.362,0.331,0.188,0.161,west-northwest,3.9,No
2017/01/26,09:10,0.380,0.227,0.394,0.362,0.331,0.187,0.162,west-northwest,4.2,No
2017/01/26,09:20,0.379,0.226,0.392,0.364,0.331,0.189,0.162,west,4.2,No
2017/01/26,09:30,0.378,0.226,0.390,0.360,0.331,0.188,0.161,west-northwest,3.1,No
2017/01/26,09:40,0.379,0.226,0.393,0.362,0.330,0.189,0.161,west-northwest,3.0,No
2017/01/26,09:50,0.379,0.226,0.394,0.361,0.332,0.188,0.161,west,1.8,No
2017/01/26,10:00,-,0.226,0.395,0.361,0.330,0.189,0.161,west-southwest,3.6,No
2017/01/26,10:10,-,0.225,0.391,0.365,0.331,0.188,0.162,west-southwest,4.4,No
2017/01/26,10:20,-,0.227,0.393,0.361,0.331,0.187,0.162,west-southwest,6.1,No
2017/01/26,10:30,-,0.226,0.394,0.365,0.329,0.189,0.161,west,4.5,No
2017/01/26,10:40,-,0.226,0.391,0.361,0.330,0.188,0.162,west,6.4,No
2017/01/26,10:50,-,0.227,0.391,0.364,0.329,0.189,0.161,west,5.4,No
2017/01/26,11:00,-,0.226,0.393,0.363,0.330,0.189,0.163,west-southwest,6.7,No
2017/01/26,11:10,-,0.227,0.392,0.363,0.332,0.189,0.163,west-southwest,5.1,No
2017/01/26,11:20,-,0.228,0.391,0.362,0.329,0.189,0.162,west-southwest,7.3,No
2017/01/26,11:30,-,0.226,0.392,0.364,0.332,0.189,0.162,west-southwest,5.5,No
2017/01/26,11:40,-,0.227,0.390,0.362,0.330,0.189,0.161,west,6.1,No
2017/01/26,11:50,-,0.228,0.392,0.362,0.331,0.190,0.162,west,5.9,No
2017/01/26,12:00,-,0.226,0.390,0.365,0.331,0.189,0.163,west,6.3,No
2017/01/26,12:10,-,0.227,0.390,0.363,0.331,0.188,0.163,west,5.0,No
2017/01/26,12:20,-,0.228,0.392,0.365,0.332,0.189,0.161,west,5.0,No
2017/01/26,12:30,-,0.228,0.391,0.362,0.331,0.190,0.162,west,6.3,No
2017/01/26,12:40,-,0.227,0.392,0.364,0.333,0.189,0.163,west,5.0,No
2017/01/26,12:50,-,0.227,0.391,0.363,0.330,0.190,0.162,west,5.3,No
2017/01/26,13:00,-,0.227,0.392,0.365,0.331,0.191,0.163,west,6.3,No
2017/01/26,13:10,-,0.228,0.391,0.363,0.333,0.189,0.162,west,5.4,No
2017/01/26,13:20,-,0.227,0.392,0.365,0.333,0.190,0.162,west-northwest,5.4,No
2017/01/26,13:30,-,0.228,0.389,0.364,0.336,0.189,0.162,west,7.8,No
2017/01/26,13:40,-,0.227,0.394,0.364,0.332,0.189,0.162,west-northwest,4.7,No
2017/01/26,13:50,-,0.228,0.394,0.364,0.333,0.190,0.162,northwest,5.3,No
2017/01/26,14:00,-,0.228,0.393,0.364,0.330,0.190,0.162,west,6.6,No
2017/01/26,14:10,-,0.228,0.393,0.363,0.334,0.188,0.162,west,6.9,No
2017/01/26,14:20,-,0.228,0.393,0.365,0.334,0.189,0.162,west-northwest,7.2,No
2017/01/26,14:30,-,0.228,0.395,0.366,0.333,0.190,0.162,west,4.8,No
2017/01/26,14:40,-,0.228,0.393,0.366,0.335,0.190,0.163,west-northwest,4.6,No
2017/01/26,14:50,-,0.228,0.393,0.366,0.333,0.188,0.162,west-northwest,6.1,No
2017/01/26,15:00,-,0.228,0.394,0.366,0.335,0.190,0.163,west-northwest,5.7,No
2017/01/26,15:10,-,0.228,0.395,0.365,0.334,0.189,0.163,west-northwest,7.1,No
2017/01/26,15:20,-,0.229,0.394,0.367,0.332,0.189,0.163,northwest,6.4,No
2017/01/26,15:30,-,0.228,0.395,0.365,0.332,0.188,0.162,northwest,3.3,No
2017/01/26,15:40,-,0.229,0.395,0.365,0.336,0.190,0.164,northwest,4.1,No
2017/01/26,15:50,-,0.228,0.394,0.368,0.333,0.190,0.163,west,3.9,No
2017/01/26,16:00,0.383,0.229,0.395,0.368,0.334,0.189,0.162,west,3.6,No
2017/01/26,16:10,0.383,0.229,0.394,0.365,0.333,0.189,0.163,west,2.5,No
2017/01/26,16:20,0.382,0.229,0.393,0.368,0.334,0.189,0.163,west-northwest,0.6,No
2017/01/26,16:30,0.385,0.229,0.392,0.366,0.332,0.189,0.163,west,0.6,No
2017/01/26,16:40,0.384,0.228,0.395,0.366,0.334,0.190,0.163,west,2.1,No
2017/01/26,16:50,0.381,0.229,0.393,0.366,0.335,0.190,0.163,northwest,4.1,No
2017/01/26,17:00,0.384,0.228,0.393,0.364,0.334,0.190,0.163,northwest,7.1,No
2017/01/26,17:10,0.383,0.228,0.395,0.366,0.333,0.190,0.161,northwest,5.5,No
2017/01/26,17:20,0.382,0.228,0.394,0.367,0.335,0.190,0.162,west-northwest,5.7,No
2017/01/26,17:30,0.382,0.227,0.394,0.367,0.334,0.189,0.162,west-northwest,5.2,No
2017/01/26,17:40,0.384,0.229,0.397,0.366,0.334,0.190,0.162,west,5.9,No
2017/01/26,17:50,0.384,0.229,0.396,0.366,0.334,0.190,0.163,west,6.4,No
2017/01/26,18:00,0.382,0.228,0.395,0.366,0.334,0.189,0.163,west-northwest,6.5,No
2017/01/26,18:10,0.382,0.228,0.393,0.367,0.333,0.190,0.163,west-northwest,6.8,No
2017/01/26,18:20,0.383,0.228,0.395,0.365,0.333,0.190,0.163,west-northwest,6.4,No
2017/01/26,18:30,0.383,0.227,0.395,0.366,0.334,0.190,0.163,west-northwest,5.5,No
2017/01/26,18:40,0.383,0.228,0.393,0.366,0.333,0.191,0.162,west-northwest,2.4,No
2017/01/26,18:50,0.384,0.228,0.393,0.366,0.333,0.191,0.163,west-southwest,2.8,No
2017/01/26,19:00,0.383,0.228,0.394,0.365,0.332,0.189,0.164,west,4.0,No
2017/01/26,19:10,0.382,0.228,0.394,0.367,0.332,0.191,0.163,west,3.8,No
2017/01/26,19:20,0.383,0.228,0.394,0.367,0.333,0.191,0.163,southwest,3.9,No
2017/01/26,19:30,0.384,0.228,0.394,0.365,0.332,0.192,0.162,west-southwest,5.1,No
2017/01/26,19:40,0.384,0.230,0.396,0.366,0.334,0.190,0.163,west-southwest,6.1,No
2017/01/26,19:50,0.383,0.229,0.396,0.366,0.335,0.189,0.163,west,6.2,No
2017/01/26,20:00,0.382,0.229,0.394,0.368,0.333,0.191,0.162,west,5.3,No
2017/01/26,20:10,0.384,0.230,0.394,0.365,0.333,0.190,0.162,west-southwest,5.6,No
2017/01/26,20:20,0.383,0.228,0.396,0.366,0.332,0.191,0.162,west-southwest,7.2,No
2017/01/26,20:30,0.383,0.228,0.394,0.368,0.335,0.190,0.163,west-southwest,6.9,No
2017/01/26,20:40,0.383,0.227,0.394,0.366,0.333,0.190,0.163,southwest,6.7,No
2017/01/26,20:50,0.384,0.227,0.394,0.366,0.334,0.191,0.163,southwest,6.7,No
2017/01/26,21:00,0.382,0.230,0.395,0.366,0.334,0.189,0.163,southwest,5.9,No
2017/01/26,21:10,0.385,0.228,0.394,0.367,0.333,0.189,0.163,southwest,5.7,No
2017/01/26,21:20,0.382,0.227,0.394,0.367,0.333,0.190,0.163,southwest,4.4,No
2017/01/26,21:30,0.384,0.227,0.394,0.366,0.334,0.190,0.163,southwest,3.3,No
2017/01/26,21:40,0.384,0.228,0.393,0.367,0.333,0.191,0.163,southwest,5.3,No
2017/01/26,21:50,0.382,0.228,0.395,0.368,0.334,0.190,0.163,southwest,6.1,No
2017/01/26,22:00,0.381,0.230,0.394,0.365,0.335,0.190,0.163,southwest,4.8,No
2017/01/26,22:10,0.382,0.229,0.395,0.368,0.332,0.189,0.163,west-southwest,4.1,No
2017/01/26,22:20,0.383,0.230,0.395,0.368,0.332,0.190,0.163,west-southwest,4.3,No
2017/01/26,22:30,0.384,0.227,0.394,0.367,0.332,0.190,0.163,southwest,4.7,No
2017/01/26,22:40,0.383,0.228,0.394,0.368,0.333,0.191,0.163,southwest,6.0,No
2017/01/26,22:50,0.383,0.228,0.395,0.367,0.334,0.190,0.163,southwest,6.8,No
2017/01/26,23:00,0.383,0.228,0.395,0.367,0.334,0.191,0.163,southwest,6.7,No
2017/01/26,23:10,0.385,0.228,0.395,0.367,0.333,0.191,0.163,southwest,6.3,No
2017/01/26,23:20,0.384,0.228,0.395,0.368,0.334,0.190,0.163,southwest,6.8,No
2017/01/26,23:30,0.383,0.229,0.396,0.366,0.332,0.190,0.163,southwest,7.3,No
2017/01/26,23:40,0.383,0.228,0.394,0.367,0.333,0.190,0.163,southwest,7.9,No
2017/01/26,23:50,0.383,0.228,0.395,0.367,0.332,0.190,0.163,south-southwest,8.1,No
